Tracking 31027 objects as of 19-Jul-2025
HD Live streaming from Space Station
objects crossing your sky now

OBJECT J

Track OBJECT J now!
10-day predictions


NORAD ID: 44887
Int'l Code: 2019-093J
Perigee: 593.5 km
Apogee: 613.4 km
Inclination: 97.8 °
Period: 96.6 minutes
Semi major axis: 6974 km
RCS: Unknown
Launch date: December 20, 2019
Source: (TBD)
Launch site: Taiyaun Space Center, China (TSC)

Note: This is a ROCKET BODY
Your satellite tracking list
CREW DRAGON DEMO-2 DEB
Track 1 satellite(s)




NASA's NSSDC Master Catalog

Two Line Element Set (TLE):
1 44887U 19093J   25199.86418646  .00001618  00000-0  17117-3 0  9998
2 44887  97.8158 282.8667 0014275  98.6802 261.6034 14.90509070302307
Source of the keplerian elements: AFSPC